owner,sensor,date,latitude,longitude,vertical_datum,wind_speed,wind_to_direction,wind_speed_of_gust,qcFlag 
COMPS,ioos:station:USF.COMPS:C12:1,2017-02-01T00:05:00Z,27.4980,-83.7220,3.0,3.81,173.06,5.72,'1111122,1111122,1111122' 
COMPS,ioos:station:USF.COMPS:C12:1,2017-02-01T00:35:00Z,27.4980,-83.7220,3.0,4.27,155.77,5.39,'1111122,1111122,1111122' 
COMPS,ioos:station:USF.COMPS:C12:1,2017-02-01T01:05:00Z,27.4980,-83.7220,3.0,4.23,167.11,6.14,'1111122,1111122,1111122' 
COMPS,ioos:station:USF.COMPS:C12:1,2017-02-01T01:35:00Z,27.4980,-83.7220,3.0,4.14,164.32,5.73,'1111122,1111122,1111122' 
COMPS,ioos:station:USF.COMPS:C12:1,2017-02-01T02:05:00Z,27.4980,-83.7220,3.0,2.91,162.06,5.15,'1111122,1111122,1111122' 
COMPS,ioos:station:USF.COMPS:C12:1,2017-02-01T02:35:00Z,27.4980,-83.7220,3.0,2.41,162.78,4.02,'1111122,1111122,1111122' 
COMPS,ioos:station:USF.COMPS:C12:1,2017-02-01T03:05:00Z,27.4980,-83.7220,3.0,2.44,144.01,3.78,'1111122,1111122,1111122' 
COMPS,ioos:station:USF.COMPS:C12:1,2017-02-01T03:35:00Z,27.4980,-83.7220,3.0,2.43,154.27,3.52,'1111122,1111122,1111122' 
COMPS,ioos:station:USF.COMPS:C12:1,2017-02-01T04:05:00Z,27.4980,-83.7220,3.0,2.52,142.65,3.82,'1111122,1111122,1111122' 
COMPS,ioos:station:USF.COMPS:C12:1,2017-02-01T04:35:00Z,27.4980,-83.7220,3.0,2.51,167.93,3.97,'1111122,1111122,1111122' 
COMPS,ioos:station:USF.COMPS:C12:1,2017-02-01T05:05:00Z,27.4980,-83.7220,3.0,2.12,173.78,3.31,'1111122,1111122,1111122' 
COMPS,ioos:station:USF.COMPS:C12:1,2017-02-01T05:35:00Z,27.4980,-83.7220,3.0,2.32,161.67,3.53,'1111122,1111122,1111122' 
COMPS,ioos:station:USF.COMPS:C12:1,2017-02-01T06:05:00Z,27.4980,-83.7220,3.0,2.82,152.92,3.87,'1111122,1111122,1111122' 
COMPS,ioos:station:USF.COMPS:C12:1,2017-02-01T06:35:00Z,27.4980,-83.7220,3.0,2.91,149.13,4.52,'1111122,1111122,1111122' 
COMPS,ioos:station:USF.COMPS:C12:1,2017-02-01T07:05:00Z,27.4980,-83.7220,3.0,2.49,142.9,4.36,'1111122,1111122,1111122' 
COMPS,ioos:station:USF.COMPS:C12:1,2017-02-01T07:35:00Z,27.4980,-83.7220,3.0,3.24,160.33,4.73,'1111122,1111122,1111122' 
COMPS,ioos:station:USF.COMPS:C12:1,2017-02-01T08:05:00Z,27.4980,-83.7220,3.0,3.03,138.69,4.3,'1111122,1111122,1111122' 
COMPS,ioos:station:USF.COMPS:C12:1,2017-02-01T08:35:00Z,27.4980,-83.7220,3.0,3.59,151.45,5.02,'1111122,1111122,1111122' 
COMPS,ioos:station:USF.COMPS:C12:1,2017-02-01T09:05:00Z,27.4980,-83.7220,3.0,2.58,163.66,5.16,'1111122,1111122,1111122' 
COMPS,ioos:station:USF.COMPS:C12:1,2017-02-01T09:35:00Z,27.4980,-83.7220,3.0,3.34,158.26,5.01,'1111122,1111122,1111122' 
COMPS,ioos:station:USF.COMPS:C12:1,2017-02-01T10:05:00Z,27.4980,-83.7220,3.0,3.73,163.39,5.54,'1111122,1111122,1111122' 
COMPS,ioos:station:USF.COMPS:C12:1,2017-02-01T10:35:00Z,27.4980,-83.7220,3.0,3.79,162.32,5.89,'1111122,1111122,1111122' 
COMPS,ioos:station:USF.COMPS:C12:1,2017-02-01T11:05:00Z,27.4980,-83.7220,3.0,3.27,142.46,4.79,'1111122,1111122,1111122' 
COMPS,ioos:station:USF.COMPS:C12:1,2017-02-01T11:35:00Z,27.4980,-83.7220,3.0,3.21,132.16,4.44,'1111122,1111122,1111122' 
COMPS,ioos:station:USF.COMPS:C12:1,2017-02-01T12:05:00Z,27.4980,-83.7220,3.0,2.5,135.29,4.09,'1111122,1111122,1111122' 
COMPS,ioos:station:USF.COMPS:C12:1,2017-02-01T12:35:00Z,27.4980,-83.7220,3.0,2.58,128.84,3.94,'1111122,1111122,1111122' 
COMPS,ioos:station:USF.COMPS:C12:1,2017-02-01T13:05:00Z,27.4980,-83.7220,3.0,2.72,143.83,3.95,'1111122,1111122,1111122' 
COMPS,ioos:station:USF.COMPS:C12:1,2017-02-01T13:35:00Z,27.4980,-83.7220,3.0,2.55,132.12,4.33,'1111122,1111122,1111122' 
COMPS,ioos:station:USF.COMPS:C12:1,2017-02-01T14:05:00Z,27.4980,-83.7220,3.0,1.75,107.43,3.22,'1111122,1111122,1111122' 
COMPS,ioos:station:USF.COMPS:C12:1,2017-02-01T14:35:00Z,27.4980,-83.7220,3.0,2.19,118.68,3.42,'1111122,1111122,1111122' 
COMPS,ioos:station:USF.COMPS:C12:1,2017-02-01T15:05:00Z,27.4980,-83.7220,3.0,1.77,141.86,3.25,'1111122,1111122,1111122' 
COMPS,ioos:station:USF.COMPS:C12:1,2017-02-01T15:35:00Z,27.4980,-83.7220,3.0,2.38,116.03,3.46,'1111122,1111122,1111122' 
COMPS,ioos:station:USF.COMPS:C12:1,2017-02-01T16:05:00Z,27.4980,-83.7220,3.0,2.67,99.74,3.9,'1111122,1111122,1111122' 
COMPS,ioos:station:USF.COMPS:C12:1,2017-02-01T16:35:00Z,27.4980,-83.7220,3.0,3.02,89.63,4.27,'1111122,1111122,1111122' 
COMPS,ioos:station:USF.COMPS:C12:1,2017-02-01T17:05:00Z,27.4980,-83.7220,3.0,3.18,107.79,4.5,'1111122,1111122,1111122' 
COMPS,ioos:station:USF.COMPS:C12:1,2017-02-01T17:35:00Z,27.4980,-83.7220,3.0,3.26,96.8,4.69,'1111122,1111122,1111122' 
COMPS,ioos:station:USF.COMPS:C12:1,2017-02-01T18:05:00Z,27.4980,-83.7220,3.0,3.6,97.77,4.78,'1111122,1111122,1111122' 
COMPS,ioos:station:USF.COMPS:C12:1,2017-02-01T18:35:00Z,27.4980,-83.7220,3.0,3.61,96.73,4.67,'1111122,1111122,1111122' 
COMPS,ioos:station:USF.COMPS:C12:1,2017-02-01T19:05:00Z,27.4980,-83.7220,3.0,3.08,93.74,4.31,'1111122,1111122,1111122' 
COMPS,ioos:station:USF.COMPS:C12:1,2017-02-01T19:35:00Z,27.4980,-83.7220,3.0,3.12,81.09,4.33,'1111122,1111122,1111122' 
COMPS,ioos:station:USF.COMPS:C12:1,2017-02-01T20:05:00Z,27.4980,-83.7220,3.0,2.95,75.72,4.04,'1111122,1111122,1111122' 
COMPS,ioos:station:USF.COMPS:C12:1,2017-02-01T20:35:00Z,27.4980,-83.7220,3.0,2.97,75.23,3.86,'1111122,1111122,1111122' 
COMPS,ioos:station:USF.COMPS:C12:1,2017-02-01T21:05:00Z,27.4980,-83.7220,3.0,3.2,68.58,4.17,'1111122,1111122,1111122' 
COMPS,ioos:station:USF.COMPS:C12:1,2017-02-01T21:35:00Z,27.4980,-83.7220,3.0,2.88,68.68,3.88,'1111122,1111122,1111122' 
COMPS,ioos:station:USF.COMPS:C12:1,2017-02-01T22:05:00Z,27.4980,-83.7220,3.0,3.16,75.75,4.06,'1111122,1111122,1111122' 
COMPS,ioos:station:USF.COMPS:C12:1,2017-02-01T22:35:00Z,27.4980,-83.7220,3.0,3.51,71.33,4.53,'1111122,1111122,1111122' 
COMPS,ioos:station:USF.COMPS:C12:1,2017-02-01T23:05:00Z,27.4980,-83.7220,3.0,3.5,67.9,4.61,'1111122,1111122,1111122' 
COMPS,ioos:station:USF.COMPS:C12:1,2017-02-01T23:35:00Z,27.4980,-83.7220,3.0,3.66,66.67,4.84,'1111122,1111122,1111122' 
COMPS,ioos:station:USF.COMPS:C12:1,2017-02-02T00:05:00Z,27.4980,-83.7220,3.0,3.26,65.75,4.2,'1111122,1111122,1111122' 
COMPS,ioos:station:USF.COMPS:C12:1,2017-02-02T00:35:00Z,27.4980,-83.7220,3.0,3.31,69.18,4.16,'1111122,1111122,1111122' 
COMPS,ioos:station:USF.COMPS:C12:1,2017-02-02T01:05:00Z,27.4980,-83.7220,3.0,3.38,83.21,4.36,'1111122,1111122,1111122' 
COMPS,ioos:station:USF.COMPS:C12:1,2017-02-02T01:35:00Z,27.4980,-83.7220,3.0,3.38,80.51,4.27,'1111122,1111122,1111122' 
COMPS,ioos:station:USF.COMPS:C12:1,2017-02-02T02:05:00Z,27.4980,-83.7220,3.0,2.17,63.1,3.61,'1111122,1111122,1111122' 
COMPS,ioos:station:USF.COMPS:C12:1,2017-02-02T02:35:00Z,27.4980,-83.7220,3.0,2.62,64.39,3.43,'1111122,1111122,1111122' 
COMPS,ioos:station:USF.COMPS:C12:1,2017-02-02T03:05:00Z,27.4980,-83.7220,3.0,1.97,44.61,2.9,'1111122,1111122,1111122' 
COMPS,ioos:station:USF.COMPS:C12:1,2017-02-02T03:35:00Z,27.4980,-83.7220,3.0,2.19,15.73,2.76,'1111122,1111122,1111122' 
COMPS,ioos:station:USF.COMPS:C12:1,2017-02-02T04:05:00Z,27.4980,-83.7220,3.0,1.43,354.06,2.11,'1111122,1111122,1111122' 
COMPS,ioos:station:USF.COMPS:C12:1,2017-02-02T04:35:00Z,27.4980,-83.7220,3.0,1.37,15.18,2.15,'1111122,1111122,1111122' 
COMPS,ioos:station:USF.COMPS:C12:1,2017-02-02T05:05:00Z,27.4980,-83.7220,3.0,2.4,53.27,3.51,'1111122,1111122,1111122' 
COMPS,ioos:station:USF.COMPS:C12:1,2017-02-02T05:35:00Z,27.4980,-83.7220,3.0,2.78,53.07,4.21,'1111122,1111122,1111122' 
COMPS,ioos:station:USF.COMPS:C12:1,2017-02-02T06:05:00Z,27.4980,-83.7220,3.0,3.28,70.11,4.28,'1111122,1111122,1111122' 
COMPS,ioos:station:USF.COMPS:C12:1,2017-02-02T06:35:00Z,27.4980,-83.7220,3.0,3.2,63.77,4.59,'1111122,1111122,1111122' 
COMPS,ioos:station:USF.COMPS:C12:1,2017-02-02T07:05:00Z,27.4980,-83.7220,3.0,2.98,63.07,4.21,'1111122,1111122,1111122' 
COMPS,ioos:station:USF.COMPS:C12:1,2017-02-02T07:35:00Z,27.4980,-83.7220,3.0,2.92,61.93,4.01,'1111122,1111122,1111122' 
COMPS,ioos:station:USF.COMPS:C12:1,2017-02-02T08:05:00Z,27.4980,-83.7220,3.0,4.4,59.17,5.59,'1111122,1111122,1111122' 
COMPS,ioos:station:USF.COMPS:C12:1,2017-02-02T08:35:00Z,27.4980,-83.7220,3.0,4.35,65.68,5.67,'1111122,1111122,1111122' 
COMPS,ioos:station:USF.COMPS:C12:1,2017-02-02T09:05:00Z,27.4980,-83.7220,3.0,4.65,67.58,5.89,'1111122,1111122,1111122' 
COMPS,ioos:station:USF.COMPS:C12:1,2017-02-02T09:35:00Z,27.4980,-83.7220,3.0,4.34,77.68,5.43,'1111122,1111122,1111122' 
COMPS,ioos:station:USF.COMPS:C12:1,2017-02-02T10:05:00Z,27.4980,-83.7220,3.0,4.37,75.19,5.67,'1111122,1111122,1111122' 
COMPS,ioos:station:USF.COMPS:C12:1,2017-02-02T10:35:00Z,27.4980,-83.7220,3.0,3.94,73.91,5.57,'1111122,1111122,1111122' 
COMPS,ioos:station:USF.COMPS:C12:1,2017-02-02T11:05:00Z,27.4980,-83.7220,3.0,3.55,50.13,4.76,'1111122,1111122,1111122' 
COMPS,ioos:station:USF.COMPS:C12:1,2017-02-02T11:35:00Z,27.4980,-83.7220,3.0,3.88,57.72,4.88,'1111122,1111122,1111122' 
COMPS,ioos:station:USF.COMPS:C12:1,2017-02-02T12:05:00Z,27.4980,-83.7220,3.0,4.34,51.46,5.5,'1111122,1111122,1111122' 
COMPS,ioos:station:USF.COMPS:C12:1,2017-02-02T12:35:00Z,27.4980,-83.7220,3.0,3.95,52.44,5.33,'1111122,1111122,1111122' 
COMPS,ioos:station:USF.COMPS:C12:1,2017-02-02T13:05:00Z,27.4980,-83.7220,3.0,4.0,43.6,4.89,'1111122,1111122,1111122' 
COMPS,ioos:station:USF.COMPS:C12:1,2017-02-02T13:35:00Z,27.4980,-83.7220,3.0,3.7,39.06,4.65,'1111122,1111122,1111122' 
COMPS,ioos:station:USF.COMPS:C12:1,2017-02-02T14:05:00Z,27.4980,-83.7220,3.0,3.75,56.92,4.97,'1111122,1111122,1111122' 
COMPS,ioos:station:USF.COMPS:C12:1,2017-02-02T14:35:00Z,27.4980,-83.7220,3.0,3.85,45.9,5.03,'1111122,1111122,1111122' 
COMPS,ioos:station:USF.COMPS:C12:1,2017-02-02T15:05:00Z,27.4980,-83.7220,3.0,3.68,51.51,4.61,'1111122,1111122,1111122' 
COMPS,ioos:station:USF.COMPS:C12:1,2017-02-02T15:35:00Z,27.4980,-83.7220,3.0,3.58,59.1,4.43,'1111122,1111122,1111122' 
COMPS,ioos:station:USF.COMPS:C12:1,2017-02-02T16:05:00Z,27.4980,-83.7220,3.0,3.58,63.88,4.51,'1111122,1111122,1111122' 
COMPS,ioos:station:USF.COMPS:C12:1,2017-02-02T16:35:00Z,27.4980,-83.7220,3.0,3.37,68.88,4.4,'1111122,1111122,1111122' 
COMPS,ioos:station:USF.COMPS:C12:1,2017-02-02T17:05:00Z,27.4980,-83.7220,3.0,3.23,56.12,4.23,'1111122,1111122,1111122' 
COMPS,ioos:station:USF.COMPS:C12:1,2017-02-02T17:35:00Z,27.4980,-83.7220,3.0,2.59,65.09,3.64,'1111122,1111122,1111122' 
COMPS,ioos:station:USF.COMPS:C12:1,2017-02-02T18:05:00Z,27.4980,-83.7220,3.0,2.12,52.56,3.23,'1111122,1111122,1111122' 
COMPS,ioos:station:USF.COMPS:C12:1,2017-02-02T18:35:00Z,27.4980,-83.7220,3.0,2.27,57.16,3.27,'1111122,1111122,1111122' 
COMPS,ioos:station:USF.COMPS:C12:1,2017-02-02T19:05:00Z,27.4980,-83.7220,3.0,2.39,71.98,3.17,'1111122,1111122,1111122' 
COMPS,ioos:station:USF.COMPS:C12:1,2017-02-02T19:35:00Z,27.4980,-83.7220,3.0,2.24,79.39,3.13,'1111122,1111122,1111122' 
COMPS,ioos:station:USF.COMPS:C12:1,2017-02-02T20:05:00Z,27.4980,-83.7220,3.0,2.1,75.66,2.94,'1111122,1111122,1111122' 
COMPS,ioos:station:USF.COMPS:C12:1,2017-02-02T20:35:00Z,27.4980,-83.7220,3.0,2.39,36.43,3.31,'1111122,1111122,1111122' 
COMPS,ioos:station:USF.COMPS:C12:1,2017-02-02T21:05:00Z,27.4980,-83.7220,3.0,2.36,35.23,3.29,'1111122,1111122,1111122' 
COMPS,ioos:station:USF.COMPS:C12:1,2017-02-02T21:35:00Z,27.4980,-83.7220,3.0,2.37,19.7,3.24,'1111122,1111122,1111122' 
COMPS,ioos:station:USF.COMPS:C12:1,2017-02-02T22:05:00Z,27.4980,-83.7220,3.0,3.07,16.06,3.97,'1111122,1111122,1111122' 
COMPS,ioos:station:USF.COMPS:C12:1,2017-02-02T22:35:00Z,27.4980,-83.7220,3.0,3.53,24.56,4.55,'1111122,1111122,1111122' 
COMPS,ioos:station:USF.COMPS:C12:1,2017-02-02T23:05:00Z,27.4980,-83.7220,3.0,4.75,13.35,5.69,'1111122,1111122,1111122' 
COMPS,ioos:station:USF.COMPS:C12:1,2017-02-02T23:35:00Z,27.4980,-83.7220,3.0,5.4,6.31,6.35,'1111122,1111122,1111122' 
COMPS,ioos:station:USF.COMPS:C12:1,2017-02-03T00:05:00Z,27.4980,-83.7220,3.0,4.89,11.4,5.83,'1111122,1111122,1111122' 
COMPS,ioos:station:USF.COMPS:C12:1,2017-02-03T00:35:00Z,27.4980,-83.7220,3.0,4.64,7.43,5.66,'1111122,1111122,1111122' 
COMPS,ioos:station:USF.COMPS:C12:1,2017-02-03T01:05:00Z,27.4980,-83.7220,3.0,4.61,11.65,5.62,'1111122,1111122,1111122' 
COMPS,ioos:station:USF.COMPS:C12:1,2017-02-03T01:35:00Z,27.4980,-83.7220,3.0,4.26,7.15,5.17,'1111122,1111122,1111122' 
COMPS,ioos:station:USF.COMPS:C12:1,2017-02-03T02:05:00Z,27.4980,-83.7220,3.0,4.24,11.32,5.26,'1111122,1111122,1111122' 
COMPS,ioos:station:USF.COMPS:C12:1,2017-02-03T02:35:00Z,27.4980,-83.7220,3.0,3.7,10.36,4.79,'1111122,1111122,1111122' 
COMPS,ioos:station:USF.COMPS:C12:1,2017-02-03T03:05:00Z,27.4980,-83.7220,3.0,3.55,20.7,4.41,'1111122,1111122,1111122' 
COMPS,ioos:station:USF.COMPS:C12:1,2017-02-03T03:35:00Z,27.4980,-83.7220,3.0,4.11,28.52,5.1,'1111122,1111122,1111122' 
COMPS,ioos:station:USF.COMPS:C12:1,2017-02-03T04:05:00Z,27.4980,-83.7220,3.0,3.95,22.4,4.94,'1111122,1111122,1111122' 
COMPS,ioos:station:USF.COMPS:C12:1,2017-02-03T04:35:00Z,27.4980,-83.7220,3.0,4.11,18.97,5.1,'1111122,1111122,1111122' 
COMPS,ioos:station:USF.COMPS:C12:1,2017-02-03T05:05:00Z,27.4980,-83.7220,3.0,4.52,9.66,5.46,'1111122,1111122,1111122' 
COMPS,ioos:station:USF.COMPS:C12:1,2017-02-03T05:35:00Z,27.4980,-83.7220,3.0,4.42,19.05,5.45,'1111122,1111122,1111122' 
COMPS,ioos:station:USF.COMPS:C12:1,2017-02-03T06:05:00Z,27.4980,-83.7220,3.0,4.64,28.83,5.51,'1111122,1111122,1111122' 
COMPS,ioos:station:USF.COMPS:C12:1,2017-02-03T06:35:00Z,27.4980,-83.7220,3.0,4.05,31.36,5.21,'1111122,1111122,1111122' 
COMPS,ioos:station:USF.COMPS:C12:1,2017-02-03T07:05:00Z,27.4980,-83.7220,3.0,4.98,25.37,6.23,'1111122,1111122,1111122' 
COMPS,ioos:station:USF.COMPS:C12:1,2017-02-03T07:35:00Z,27.4980,-83.7220,3.0,4.35,31.13,5.6,'1111122,1111122,1111122' 
COMPS,ioos:station:USF.COMPS:C12:1,2017-02-03T08:05:00Z,27.4980,-83.7220,3.0,4.92,33.39,6.24,'1111122,1111122,1111122' 
COMPS,ioos:station:USF.COMPS:C12:1,2017-02-03T08:35:00Z,27.4980,-83.7220,3.0,4.93,36.43,6.01,'1111122,1111122,1111122' 
COMPS,ioos:station:USF.COMPS:C12:1,2017-02-03T09:05:00Z,27.4980,-83.7220,3.0,4.98,39.76,6.08,'1111122,1111122,1111122' 
COMPS,ioos:station:USF.COMPS:C12:1,2017-02-03T09:35:00Z,27.4980,-83.7220,3.0,4.84,44.67,6.22,'1111122,1111122,1111122' 
COMPS,ioos:station:USF.COMPS:C12:1,2017-02-03T10:05:00Z,27.4980,-83.7220,3.0,4.71,38.5,5.84,'1111122,1111122,1111122' 
COMPS,ioos:station:USF.COMPS:C12:1,2017-02-03T10:35:00Z,27.4980,-83.7220,3.0,5.04,43.74,6.44,'1111122,1111122,1111122' 
COMPS,ioos:station:USF.COMPS:C12:1,2017-02-03T11:05:00Z,27.4980,-83.7220,3.0,5.27,40.09,6.45,'1111122,1111122,1111122' 
COMPS,ioos:station:USF.COMPS:C12:1,2017-02-03T11:35:00Z,27.4980,-83.7220,3.0,5.19,37.12,6.24,'1111122,1111122,1111122' 
COMPS,ioos:station:USF.COMPS:C12:1,2017-02-03T12:05:00Z,27.4980,-83.7220,3.0,4.92,46.79,6.26,'1111122,1111122,1111122' 
COMPS,ioos:station:USF.COMPS:C12:1,2017-02-03T12:35:00Z,27.4980,-83.7220,3.0,4.44,50.78,5.49,'1111122,1111122,1111122' 
COMPS,ioos:station:USF.COMPS:C12:1,2017-02-03T13:05:00Z,27.4980,-83.7220,3.0,4.13,58.53,5.28,'1111122,1111122,1111122' 
COMPS,ioos:station:USF.COMPS:C12:1,2017-02-03T13:35:00Z,27.4980,-83.7220,3.0,3.97,65.76,4.87,'1111122,1111122,1111122' 
COMPS,ioos:station:USF.COMPS:C12:1,2017-02-03T14:05:00Z,27.4980,-83.7220,3.0,3.64,67.47,4.65,'1111122,1111122,1111122' 
COMPS,ioos:station:USF.COMPS:C12:1,2017-02-03T14:35:00Z,27.4980,-83.7220,3.0,3.56,74.34,4.3,'1111122,1111122,1111122' 
COMPS,ioos:station:USF.COMPS:C12:1,2017-02-03T15:05:00Z,27.4980,-83.7220,3.0,3.36,81.04,4.12,'1111122,1111122,1111122' 
COMPS,ioos:station:USF.COMPS:C12:1,2017-02-03T15:35:00Z,27.4980,-83.7220,3.0,3.09,72.32,4.13,'1111122,1111122,1111122' 
COMPS,ioos:station:USF.COMPS:C12:1,2017-02-03T16:05:00Z,27.4980,-83.7220,3.0,2.66,66.67,3.38,'1111122,1111122,1111122' 
COMPS,ioos:station:USF.COMPS:C12:1,2017-02-03T16:35:00Z,27.4980,-83.7220,3.0,2.59,53.18,3.3,'1111122,1111122,1111122' 
COMPS,ioos:station:USF.COMPS:C12:1,2017-02-03T17:05:00Z,27.4980,-83.7220,3.0,2.6,33.15,3.48,'1111122,1111122,1111122' 
COMPS,ioos:station:USF.COMPS:C12:1,2017-02-03T17:35:00Z,27.4980,-83.7220,3.0,2.9,28.29,3.82,'1111122,1111122,1111122' 
COMPS,ioos:station:USF.COMPS:C12:1,2017-02-03T18:05:00Z,27.4980,-83.7220,3.0,3.08,27.25,4.07,'1111122,1111122,1111122' 
COMPS,ioos:station:USF.COMPS:C12:1,2017-02-03T18:35:00Z,27.4980,-83.7220,3.0,3.23,34.07,4.02,'1111122,1111122,1111122' 
COMPS,ioos:station:USF.COMPS:C12:1,2017-02-03T19:05:00Z,27.4980,-83.7220,3.0,2.85,36.39,3.95,'1111122,1111122,1111122' 
COMPS,ioos:station:USF.COMPS:C12:1,2017-02-03T19:35:00Z,27.4980,-83.7220,3.0,2.98,48.15,3.97,'1111122,1111122,1111122' 
COMPS,ioos:station:USF.COMPS:C12:1,2017-02-03T20:05:00Z,27.4980,-83.7220,3.0,2.73,42.86,3.48,'1111122,1111122,1111122' 
COMPS,ioos:station:USF.COMPS:C12:1,2017-02-03T20:35:00Z,27.4980,-83.7220,3.0,2.91,30.74,3.64,'1111122,1111122,1111122' 
COMPS,ioos:station:USF.COMPS:C12:1,2017-02-03T21:05:00Z,27.4980,-83.7220,3.0,3.28,28.42,4.06,'1111122,1111122,1111122' 
COMPS,ioos:station:USF.COMPS:C12:1,2017-02-03T21:35:00Z,27.4980,-83.7220,3.0,2.31,40.3,3.1,'1111122,1111122,1111122' 
COMPS,ioos:station:USF.COMPS:C12:1,2017-02-03T22:05:00Z,27.4980,-83.7220,3.0,2.56,32.47,3.22,'1111122,1111122,1111122' 
COMPS,ioos:station:USF.COMPS:C12:1,2017-02-03T22:35:00Z,27.4980,-83.7220,3.0,2.91,34.99,3.59,'1111122,1111122,1111122' 
COMPS,ioos:station:USF.COMPS:C12:1,2017-02-03T23:05:00Z,27.4980,-83.7220,3.0,2.77,26.22,3.58,'1111122,1111122,1111122' 
COMPS,ioos:station:USF.COMPS:C12:1,2017-02-03T23:35:00Z,27.4980,-83.7220,3.0,2.16,38.03,2.97,'1111122,1111122,1111122' 
COMPS,ioos:station:USF.COMPS:C12:1,2017-02-04T00:05:00Z,27.4980,-83.7220,3.0,2.13,29.59,2.71,'1111122,1111122,1111122' 
COMPS,ioos:station:USF.COMPS:C12:1,2017-02-04T00:35:00Z,27.4980,-83.7220,3.0,2.16,16.91,2.84,'1111122,1111122,1111122' 
COMPS,ioos:station:USF.COMPS:C12:1,2017-02-04T01:05:00Z,27.4980,-83.7220,3.0,1.94,28.63,2.66,'1111122,1111122,1111122' 
COMPS,ioos:station:USF.COMPS:C12:1,2017-02-04T01:35:00Z,27.4980,-83.7220,3.0,2.47,5.48,3.29,'1111122,1111122,1111122' 
COMPS,ioos:station:USF.COMPS:C12:1,2017-02-04T02:05:00Z,27.4980,-83.7220,3.0,2.1,9.08,2.68,'1111122,1111122,1111122' 
COMPS,ioos:station:USF.COMPS:C12:1,2017-02-04T02:35:00Z,27.4980,-83.7220,3.0,1.63,35.19,2.31,'1111122,1111122,1111122' 
COMPS,ioos:station:USF.COMPS:C12:1,2017-02-04T03:05:00Z,27.4980,-83.7220,3.0,1.31,33.47,1.77,'1111122,1111122,1111122' 
COMPS,ioos:station:USF.COMPS:C12:1,2017-02-04T03:35:00Z,27.4980,-83.7220,3.0,0.9,18.86,1.38,'1111122,1111122,1111122' 
COMPS,ioos:station:USF.COMPS:C12:1,2017-02-04T04:05:00Z,27.4980,-83.7220,3.0,0.75,331.9,1.05,'1111122,1111122,1111122' 
COMPS,ioos:station:USF.COMPS:C12:1,2017-02-04T04:35:00Z,27.4980,-83.7220,3.0,0.87,304.46,1.21,'1111122,1111122,1111122' 
COMPS,ioos:station:USF.COMPS:C12:1,2017-02-04T05:05:00Z,27.4980,-83.7220,3.0,0.57,254.07,0.99,'1111122,1111122,1111122' 
COMPS,ioos:station:USF.COMPS:C12:1,2017-02-04T05:35:00Z,27.4980,-83.7220,3.0,1.27,303.41,2.27,'1111122,1111122,1111122' 
COMPS,ioos:station:USF.COMPS:C12:1,2017-02-04T06:05:00Z,27.4980,-83.7220,3.0,3.34,328.92,4.21,'1111122,1111122,1111122' 
COMPS,ioos:station:USF.COMPS:C12:1,2017-02-04T06:35:00Z,27.4980,-83.7220,3.0,4.78,330.6,6.16,'1111122,1111122,1111122' 
COMPS,ioos:station:USF.COMPS:C12:1,2017-02-04T07:05:00Z,27.4980,-83.7220,3.0,5.13,343.54,6.45,'1111122,1111122,1111122' 
COMPS,ioos:station:USF.COMPS:C12:1,2017-02-04T07:35:00Z,27.4980,-83.7220,3.0,5.42,357.88,7.33,'1111122,1111122,1111122' 
COMPS,ioos:station:USF.COMPS:C12:1,2017-02-04T08:05:00Z,27.4980,-83.7220,3.0,7.58,352.41,8.87,'1111122,1111122,1111122' 
COMPS,ioos:station:USF.COMPS:C12:1,2017-02-04T08:35:00Z,27.4980,-83.7220,3.0,7.11,350.86,8.64,'1111122,1111122,1111122' 
COMPS,ioos:station:USF.COMPS:C12:1,2017-02-04T09:05:00Z,27.4980,-83.7220,3.0,7.33,353.73,8.63,'1111122,1111122,1111122' 
COMPS,ioos:station:USF.COMPS:C12:1,2017-02-04T09:35:00Z,27.4980,-83.7220,3.0,7.06,16.13,8.48,'1111122,1111122,1111122' 
COMPS,ioos:station:USF.COMPS:C12:1,2017-02-04T10:05:00Z,27.4980,-83.7220,3.0,7.25,12.9,8.64,'1111122,1111122,1111122' 
COMPS,ioos:station:USF.COMPS:C12:1,2017-02-04T10:35:00Z,27.4980,-83.7220,3.0,7.21,30.72,8.73,'1111122,1111122,1111122' 
COMPS,ioos:station:USF.COMPS:C12:1,2017-02-04T11:05:00Z,27.4980,-83.7220,3.0,7.3,26.4,9.37,'1111122,1111122,1111122' 
COMPS,ioos:station:USF.COMPS:C12:1,2017-02-04T11:35:00Z,27.4980,-83.7220,3.0,7.8,21.24,9.64,'1111122,1111122,1111122' 
COMPS,ioos:station:USF.COMPS:C12:1,2017-02-04T12:05:00Z,27.4980,-83.7220,3.0,7.65,27.03,9.57,'1111122,1111122,1111122' 
COMPS,ioos:station:USF.COMPS:C12:1,2017-02-04T12:35:00Z,27.4980,-83.7220,3.0,7.3,28.17,9.07,'1111122,1111122,1111122' 
COMPS,ioos:station:USF.COMPS:C12:1,2017-02-04T13:05:00Z,27.4980,-83.7220,3.0,7.49,35.53,9.67,'1111122,1111122,1111122' 
COMPS,ioos:station:USF.COMPS:C12:1,2017-02-04T13:35:00Z,27.4980,-83.7220,3.0,7.21,35.71,8.69,'1111122,1111122,1111122' 
COMPS,ioos:station:USF.COMPS:C12:1,2017-02-04T14:05:00Z,27.4980,-83.7220,3.0,6.88,39.32,8.46,'1111122,1111122,1111122' 
COMPS,ioos:station:USF.COMPS:C12:1,2017-02-04T14:35:00Z,27.4980,-83.7220,3.0,7.3,45.18,9.4,'1111122,1111122,1111122' 
COMPS,ioos:station:USF.COMPS:C12:1,2017-02-04T15:05:00Z,27.4980,-83.7220,3.0,7.3,47.92,8.85,'1111122,1111122,1111122' 
COMPS,ioos:station:USF.COMPS:C12:1,2017-02-04T15:35:00Z,27.4980,-83.7220,3.0,7.35,52.57,9.1,'1111122,1111122,1111122' 
COMPS,ioos:station:USF.COMPS:C12:1,2017-02-04T16:05:00Z,27.4980,-83.7220,3.0,7.05,63.16,8.82,'1111122,1111122,1111122' 
COMPS,ioos:station:USF.COMPS:C12:1,2017-02-04T16:35:00Z,27.4980,-83.7220,3.0,7.11,54.95,8.95,'1111122,1111122,1111122' 
COMPS,ioos:station:USF.COMPS:C12:1,2017-02-04T17:05:00Z,27.4980,-83.7220,3.0,7.13,58.02,9.17,'1111122,1111122,1111122' 
COMPS,ioos:station:USF.COMPS:C12:1,2017-02-04T17:35:00Z,27.4980,-83.7220,3.0,6.22,65.39,7.76,'1111122,1111122,1111122' 
COMPS,ioos:station:USF.COMPS:C12:1,2017-02-04T18:05:00Z,27.4980,-83.7220,3.0,5.3,63.75,7.13,'1111122,1111122,1111122' 
COMPS,ioos:station:USF.COMPS:C12:1,2017-02-04T18:35:00Z,27.4980,-83.7220,3.0,5.16,58.29,6.51,'1111122,1111122,1111122' 
COMPS,ioos:station:USF.COMPS:C12:1,2017-02-04T19:05:00Z,27.4980,-83.7220,3.0,4.49,62.94,5.98,'1111122,1111122,1111122' 
COMPS,ioos:station:USF.COMPS:C12:1,2017-02-04T19:35:00Z,27.4980,-83.7220,3.0,4.3,52.23,6.19,'1111122,1111122,1111122' 
COMPS,ioos:station:USF.COMPS:C12:1,2017-02-04T20:05:00Z,27.4980,-83.7220,3.0,4.81,47.48,6.21,'1111122,1111122,1111122' 
COMPS,ioos:station:USF.COMPS:C12:1,2017-02-04T20:35:00Z,27.4980,-83.7220,3.0,4.43,51.61,5.65,'1111122,1111122,1111122' 
COMPS,ioos:station:USF.COMPS:C12:1,2017-02-04T21:05:00Z,27.4980,-83.7220,3.0,3.67,58.31,4.89,'1111122,1111122,1111122' 
COMPS,ioos:station:USF.COMPS:C12:1,2017-02-04T21:35:00Z,27.4980,-83.7220,3.0,3.27,52.8,4.51,'1111122,1111122,1111122' 
COMPS,ioos:station:USF.COMPS:C12:1,2017-02-04T22:05:00Z,27.4980,-83.7220,3.0,2.82,60.96,3.9,'1111122,1111122,1111122' 
COMPS,ioos:station:USF.COMPS:C12:1,2017-02-04T22:35:00Z,27.4980,-83.7220,3.0,2.29,34.67,3.24,'1111122,1111122,1111122' 
COMPS,ioos:station:USF.COMPS:C12:1,2017-02-04T23:05:00Z,27.4980,-83.7220,3.0,3.48,5.64,4.5,'1111122,1111122,1111122' 
COMPS,ioos:station:USF.COMPS:C12:1,2017-02-04T23:35:00Z,27.4980,-83.7220,3.0,4.01,354.88,5.67,'1111122,1111122,1111122' 
COMPS,ioos:station:USF.COMPS:C12:1,2017-02-05T00:05:00Z,27.4980,-83.7220,3.0,4.82,359.81,6.14,'1111122,1111122,1111122' 
COMPS,ioos:station:USF.COMPS:C12:1,2017-02-05T00:35:00Z,27.4980,-83.7220,3.0,4.57,358.76,5.68,'1111122,1111122,1111122' 
COMPS,ioos:station:USF.COMPS:C12:1,2017-02-05T01:05:00Z,27.4980,-83.7220,3.0,4.32,0.62,5.56,'1111122,1111122,1111122' 
COMPS,ioos:station:USF.COMPS:C12:1,2017-02-05T01:35:00Z,27.4980,-83.7220,3.0,4.83,3.18,6.18,'1111122,1111122,1111122' 
COMPS,ioos:station:USF.COMPS:C12:1,2017-02-05T02:05:00Z,27.4980,-83.7220,3.0,4.09,3.3,5.57,'1111122,1111122,1111122' 
COMPS,ioos:station:USF.COMPS:C12:1,2017-02-05T02:35:00Z,27.4980,-83.7220,3.0,4.3,2.43,5.17,'1111122,1111122,1111122' 
COMPS,ioos:station:USF.COMPS:C12:1,2017-02-05T03:05:00Z,27.4980,-83.7220,3.0,5.0,356.99,6.24,'1111122,1111122,1111122' 